Location: Eitelborn
(50.3758°N, 7.7222°E)
Time: 09:01:44
(UTC+00:00)

Daily predictions for brighter satellites

Satellite Brightness Start Highest point End
(mag) Time Altitude Azimuth Time Altitude Azimuth Time Altitude Azimuth
STARLINK-1226 3.8 20:12:40 10° WNW 20:15:44 49° N 20:18:46 10° ENE
STARLINK-1154 4.1 20:11:46 10° W 20:15:54 65° N 20:20:02 10° ENE
SL-4 R/B 3.6 20:14:22 10° WNW 20:16:34 18° WSW 20:18:40 10° SSW
STARLINK-1215 3.8 20:13:34 10° WNW 20:16:38 49° N 20:19:41 10° ENE
STARLINK-1144 3.6 20:12:31 10° WNW 20:16:40 82° SSW 20:20:49 10° ESE
STARLINK-1243 3.6 20:13:59 10° WSW 20:18:07 71° SSE 20:22:15 10° ENE
Cosmos 2221 Rocket 3.8 20:13:41 10° SSW 20:18:12 80° W 20:22:48 10° N
STARLINK-1217 3.8 20:15:23 10° WNW 20:18:27 49° N 20:21:30 10° E
NOSS 3-2 (A) 4.3 20:11:31 10° NW 20:18:43 64° NE 20:26:54 10° ESE
STARLINK-1229 3.8 20:16:19 10° WNW 20:19:22 49° N 20:22:25 10° E
SPOT 5 3.8 20:14:56 10° SE 20:19:51 41° ENE 20:24:52 10° N
STARLINK-1270 3.8 20:17:12 10° WNW 20:20:15 49° N 20:23:19 10° E
STARLINK-1197 4.1 20:16:45 10° W 20:20:52 64° N 20:24:59 10° ENE
NOSS 8 (F) 4.3 20:18:15 10° SSW 20:21:22 52° SE 20:24:21 10° NE
STARLINK-1103 3.6 20:17:28 10° WNW 20:21:38 78° SSW 20:25:46 10° ESE
Meteor 1-13 Rocket 4.3 20:16:15 10° S 20:21:53 80° E 20:27:40 10° NNE
STARLINK-1189 3.8 20:19:00 10° WNW 20:22:03 50° N 20:25:07 10° E
STARLINK-1188 3.8 20:19:55 10° WNW 20:22:58 50° N 20:26:01 10° E
STARLINK-1236 3.6 20:18:56 10° WSW 20:23:05 75° SSE 20:27:13 10° ENE
STARLINK-1187 3.7 20:21:00 10° WNW 20:24:03 50° N 20:27:05 10° E
ERS-1 Rocket 3.4 20:20:09 10° SE 20:24:59 50° ENE 20:29:52 10° N
STARLINK-1191 3.8 20:22:22 10° WNW 20:25:24 50° N 20:28:26 10° E
STARLINK-1198 4.2 20:21:44 10° W 20:25:51 63° N 20:29:59 10° ENE
STARLINK-1221 3.8 20:23:19 10° WNW 20:26:21 50° N 20:29:24 10° E
STARLINK-1101 3.6 20:22:27 10° WNW 20:26:37 74° SSW 20:30:44 10° ESE
STARLINK-1222 3.7 20:24:10 10° WNW 20:27:12 50° N 20:30:15 10° E
STARLINK-1214 3.7 20:25:04 10° WNW 20:28:07 50° N 20:31:10 10° E
Cosmos 1066 Rocket 4.4 20:24:23 10° SSE 20:29:34 50° E 20:34:43 10° NNE
USA 238 DEB 4.1 20:23:33 10° NW 20:30:41 69° NE 20:38:05 10° SE
USA 238 4.1 20:23:39 10° NW 20:30:47 68° NE 20:38:12 10° SE
STARLINK-1199 4.2 20:26:45 10° W 20:30:52 61° N 20:34:59 10° ENE
USA 245 2.3 20:28:24 10° SSE 20:31:19 83° WSW 20:33:49 10° NNW
STARLINK-1102 3.7 20:27:27 10° WNW 20:31:36 70° SSW 20:35:43 10° ESE
STARLINK-1228 3.8 20:29:08 10° WNW 20:32:35 57° N 20:36:03 10° E
STARLINK-1269 3.6 20:28:53 10° WSW 20:33:02 83° SSE 20:37:12 10° ENE
Okean 1 Rocket 3.2 20:28:52 10° N 20:33:20 66° ENE 20:37:44 10° SSE
Cosmos 1805 4.0 20:29:51 10° N 20:33:35 40° ENE 20:37:07 11° SE
Okean 2 Rocket 4.2 20:29:46 10° NNW 20:33:58 43° W 20:38:06 10° SSW
Cosmos 1741 Rocket 4.4 20:28:48 10° NNW 20:33:58 62° WSW 20:39:06 10° S
Cosmos 2278 Rocket 3.1 20:28:49 10° SW 20:34:22 55° NW 20:39:59 10° NNE
TSX-5 4.3 20:29:03 10° SSW 20:34:31 65° ESE 20:38:45 10° NE
Resurs 01 Rocket 2.9 20:30:49 10° SSW 20:34:59 38° W 20:39:10 10° NNW
STARLINK-1210 4.2 20:31:44 10° W 20:35:52 61° N 20:39:58 10° ENE
STARLINK-1235 3.7 20:32:47 10° WNW 20:35:58 55° N 20:39:09 10° E
Nadezhda 4 Rocket 4.2 20:30:06 10° SSE 20:36:03 56° E 20:42:01 10° NNE
STARLINK-1111 3.7 20:32:25 10° WNW 20:36:33 67° SSW 20:40:34 11° SE
STARLINK-1200 3.6 20:33:50 10° WSW 20:38:00 86° SSE 20:42:10 10° ENE
Cosmos 1455 Rocket 4.4 20:35:09 10° NNE 20:38:46 25° ENE 20:42:18 10° SE
STARLINK-1219 4.2 20:36:44 10° W 20:40:51 60° N 20:44:57 10° ENE
STARLINK-1073 3.7 20:37:25 10° WNW 20:41:31 63° SSW 20:45:22 12° SE
SL-8 R/B 4.0 20:37:02 10° W 20:41:42 52° SSW 20:46:16 10° ESE
STARLINK-1192 3.6 20:38:50 10° WSW 20:42:59 90° SSW 20:47:09 10° ENE
ATLAS CENTAUR R/B 3.4 20:44:09 10° NW 20:45:14 13° N 20:46:18 10° NNE
STARLINK-1211 4.2 20:41:45 10° W 20:45:51 59° N 20:49:57 10° ENE
Cosmos 371 Rocket 4.0 20:41:28 10° SW 20:46:15 60° WNW 20:51:07 10° NNE
STARLINK-1121 3.8 20:42:24 10° WNW 20:46:29 59° SSW 20:50:08 13° SE
SL-4 R/B 3.8 20:44:37 10° S 20:47:44 18° SE 20:50:54 10° E
STARLINK-1244 3.6 20:43:48 10° WSW 20:47:57 87° NNW 20:52:08 10° ENE
Cosmos 1110 Rocket 4.0 20:43:16 10° S 20:48:22 60° ESE 20:53:28 10° NNE
Terra 2.3 20:44:22 12° SE 20:48:39 50° ENE 20:53:15 10° N
Spot 2 Rocket 4.0 20:44:57 10° S 20:49:56 59° WSW 20:54:56 10° NNW
Abrixas rocket 3.2 20:47:34 10° W 20:50:06 25° SSW 20:51:50 15° SSE
SPOT 1/Viking Rocket 3.7 20:45:36 10° SSE 20:50:46 79° WSW 20:55:57 10° NNW
STARLINK-1245 4.2 20:46:44 10° W 20:50:50 59° N 20:54:56 10° ENE
STARLINK-1106 3.9 20:47:24 10° WNW 20:51:28 56° SSW 20:54:56 14° SE
CARTOSAT-1 3.6 20:47:49 11° SSE 20:51:53 76° ENE 20:56:13 10° N
ERBS 4.0 20:49:11 10° W 20:52:17 36° NNW 20:55:25 10° NE
NOSS 8 (H) 4.0 20:49:26 10° SSW 20:52:31 65° SE 20:55:36 10° NE
STARLINK-1138 3.7 20:48:47 10° WSW 20:52:57 84° NNW 20:57:07 10° ENE
STARLINK-1234 3.4 20:50:33 10° WNW 20:53:48 62° NNE 20:57:04 10° E
STARLINK-1233 4.2 20:51:42 10° W 20:55:48 59° N 20:59:54 10° E
STARLINK-1112 3.9 20:52:22 10° WNW 20:56:24 52° SSW 20:59:41 15° SE
STARLINK-1143 3.7 20:53:45 10° WSW 20:57:54 81° NNW 21:02:04 10° ENE
STARLINK-1209 3.3 20:56:31 10° WNW 20:59:49 66° NNE 21:03:06 10° E
STARLINK-1204 4.2 20:56:42 10° W 21:00:49 59° N 21:04:55 10° E
STARLINK-1128 4.0 20:57:21 10° WNW 21:01:22 49° SSW 21:04:28 16° SE
STARLINK-1241 3.8 20:58:47 10° WSW 21:02:56 78° NNW 21:07:06 10° ENE
Cosmos 1331 Rocket 3.9 21:00:01 10° SSW 21:05:08 74° ESE 21:10:20 10° NNE
STARLINK-1238 4.2 21:01:43 10° W 21:05:50 59° N 21:09:56 10° E
Aureole 2 Rocket 2.7 21:02:53 10° SW 21:05:55 56° WNW 21:08:50 10° NNE
STARLINK-1113 4.1 21:02:21 10° WNW 21:06:20 46° SSW 21:09:15 17° SE
Cosmos 1733 3.3 21:02:57 10° N 21:06:45 61° ENE 21:09:32 17° SSE
STARLINK-1239 3.8 21:03:45 10° WSW 21:07:54 75° NNW 21:12:04 10° ENE
STARLINK-1201 4.2 21:06:43 10° W 21:10:49 59° N 21:14:55 10° E
Cosmos 1437 Rocket 4.0 21:07:15 10° SW 21:10:50 39° WNW 21:14:29 10° N
STARLINK-1119 4.2 21:07:22 10° WNW 21:11:19 43° SW 21:14:04 18° SSE
STARLINK-1240 3.9 21:08:44 10° W 21:12:53 73° NNW 21:17:02 10° ENE
Cosmos 1378 3.0 21:09:41 11° S 21:13:15 84° E 21:16:59 10° NNE
Cosmos 1486 Rocket 4.3 21:08:49 10° NNW 21:14:05 59° ENE 21:18:13 16° SE
Cosmos 1302 Rocket 4.3 21:10:14 10° S 21:15:18 50° ESE 21:20:25 10° NNE
Cosmos 1544 Rocket 4.3 21:11:37 10° N 21:15:43 40° ENE 21:18:39 17° SE
STARLINK-1206 4.2 21:11:43 10° WNW 21:15:50 59° N 21:19:56 10° E
USA 215 3.9 21:09:38 10° E 21:16:02 58° NNE 21:22:25 10° WNW
Cosmos 1271 Rocket 4.3 21:14:22 15° SE 21:16:08 21° E 21:19:06 10° NE
STARLINK-1114 4.3 21:12:21 10° WNW 21:16:15 40° SW 21:18:49 19° SSE
Cosmos 1242 Rocket 3.8 21:15:26 18° SE 21:17:15 27° E 21:20:24 10° NE
MTI 4.3 21:14:20 10° NNE 21:17:20 39° E 21:18:58 21° SSE
Cosmos 304 Rocket 4.3 21:12:54 10° SW 21:17:38 62° WNW 21:22:26 10° NNE
STARLINK-1203 3.9 21:13:33 10° W 21:17:46 71° NNW 21:21:58 10° ENE
STARLINK-1216 3.9 21:13:43 10° W 21:17:51 71° NNW 21:22:00 10° ENE
Lacrosse 5 4.1 21:15:54 10° W 21:18:15 13° WSW 21:20:35 10° SSW
STARLINK-60 4.4 21:20:10 20° SE 21:20:10 20° SE 21:22:04 10° E
STARLINK-1205 4.2 21:16:42 10° WNW 21:20:48 59° N 21:24:55 10° E
STARLINK-1130 (DARKSAT) 4.4 21:17:21 10° WNW 21:21:13 38° SW 21:23:37 19° SSE
Cosmos 1092 Rocket 4.0 21:15:30 10° S 21:21:33 76° E 21:27:43 10° NNE
NOSS 2-2 (D) 3.1 21:18:47 10° SW 21:22:21 79° SE 21:26:29 10° NE
STARLINK-1237 4.0 21:18:42 10° W 21:22:51 69° NNW 21:27:00 10° ENE
CENTAUR R/B 3.3 21:15:23 10° NW 21:23:16 79° NE 21:31:08 14° SE
STARLINK-1218 4.2 21:21:42 10° WNW 21:25:49 60° N 21:29:55 10° E
STARLINK-1084 4.5 21:22:22 10° WNW 21:26:10 35° SW 21:28:24 20° SSE
Cosmos 1707 4.3 21:24:35 16° ESE 21:26:15 21° E 21:29:15 10° NE
ATLAS 3B R/B 3.4 21:19:56 10° NW 21:26:29 50° NE 21:33:12 10° ESE
SL-27 R/B 2.4 21:23:43 10° NNW 21:27:21 83° ENE 21:29:28 23° SSE
STARLINK-1202 4.0 21:23:43 10° W 21:27:51 67° NNW 21:31:59 10° ENE
NOSS 3-2 (C) 4.1 21:21:07 10° NW 21:28:32 89° NE 21:35:36 16° SE
Cosmos 1766 3.7 21:25:48 10° NNW 21:29:44 58° W 21:32:47 16° S
Cosmos 1726 4.0 21:27:57 10° NNE 21:30:45 20° ENE 21:32:50 13° ESE
STARLINK-1254 4.1 21:26:41 10° WNW 21:30:48 61° N 21:34:55 10° E
Cosmos 1867 4.0 21:28:06 10° NW 21:33:32 59° NE 21:38:06 14° ESE
COSMOS 2487 4.3 21:32:01 10° N 21:34:48 22° NE 21:37:03 13° ESE
STARLINK-1231 4.1 21:31:40 10° WNW 21:35:47 61° N 21:39:54 10° E
STARLINK-1246 4.1 21:33:43 10° W 21:37:50 64° N 21:41:59 10° ENE
Cosmos 1943 Rocket 2.1 21:32:56 10° SSW 21:38:28 78° ESE 21:44:06 10° NNE
Cosmos 2297 4.4 21:33:10 10° SW 21:38:45 57° NW 21:44:25 10° NNE
NOSS 2-2 (E) 3.8 21:36:06 10° SW 21:39:42 62° NW 21:44:01 10° NE
NOSS 3-4 (A) 4.2 21:36:32 18° SSE 21:40:02 32° ESE 21:45:29 10° NE
NOSS 3-4 (C) 4.2 21:36:40 18° SSE 21:40:08 32° ESE 21:45:35 10° NE
STARLINK-1232 4.1 21:36:40 10° WNW 21:40:48 62° N 21:44:55 10° E
Cosmos 2082 Rocket 4.5 21:38:52 10° WNW 21:42:01 15° W 21:45:10 10° SW
SeaSat 1 3.5 21:38:23 10° NE 21:42:34 27° ESE 21:44:34 21° SE
STARLINK-1224 4.1 21:38:42 10° W 21:42:49 63° N 21:46:57 10° ENE
EO 1 Del DPAF 4.3 21:39:44 10° NE 21:43:05 29° E 21:44:29 23° SE
STARLINK-1208 4.0 21:41:38 10° WNW 21:45:46 63° N 21:49:53 10° E
STARLINK-1225 4.1 21:43:43 10° W 21:47:50 62° N 21:51:57 10° ENE
Cosmos 1975 Rocket 3.2 21:44:36 15° SSW 21:48:17 76° WNW 21:52:42 10° N
STARLINK-1212 2.8 21:45:53 10° WNW 21:49:01 90° ENE 21:50:47 23° ESE
STARLINK-1105 2.7 21:46:22 10° WNW 21:49:29 89° SSE 21:51:12 24° ESE
STARLINK-1247 2.8 21:47:14 10° WNW 21:50:22 89° SSW 21:52:06 24° ESE
Meteor 2-10 4.5 21:45:40 10° N 21:50:35 48° ENE 21:53:43 21° SE
STARLINK-1271 4.0 21:46:40 10° WNW 21:50:47 65° N 21:54:55 10° E
STARLINK-1227 2.7 21:47:44 10° WNW 21:50:51 88° S 21:52:32 24° ESE
BREEZE-M DEB (TANK) 3.5 21:37:34 10° WSW 21:51:32 69° SSE 21:55:16 10° E
STARLINK-1226 2.7 21:48:35 10° WNW 21:51:42 87° SSW 21:53:23 25° ESE
Cosmos 292 Rocket 3.8 21:48:20 18° S 21:51:49 62° ESE 21:56:38 10° NNE
BREEZE-M DEB (TANK) 2.8 21:48:16 10° W 21:52:16 78° S 21:56:04 10° E
STARLINK-1215 2.7 21:49:29 10° WNW 21:52:37 87° SSW 21:54:16 25° ESE
STARLINK-1230 4.2 21:48:42 10° W 21:52:48 61° N 21:56:56 10° ENE
S3M 4.2 21:47:52 10° N 21:53:58 60° ENE 21:58:10 21° SSE
STARLINK-1217 2.7 21:51:17 10° WNW 21:54:25 85° SSW 21:56:00 27° ESE
Cosmos 2369 Rocket 2.1 21:49:04 10° SSW 21:54:40 76° ESE 22:00:19 10° NNE
STARLINK-1229 2.7 21:52:12 10° WNW 21:55:20 84° SSW 21:56:54 27° ESE
STARLINK-1154 4.0 21:51:39 10° WNW 21:55:47 66° N 21:59:55 10° E
STARLINK-1270 2.7 21:53:06 10° WNW 21:56:14 83° SSW 21:57:46 27° ESE
Aureole 3 Rocket 4.3 21:51:35 10° N 21:57:39 90° WSW 22:03:54 19° S
STARLINK-1243 4.2 21:53:43 10° W 21:57:49 60° N 22:01:56 10° ENE
SPOT 5 4.3 21:53:31 12° SSW 21:57:58 35° W 22:02:53 10° NNW
STARLINK-1189 2.7 21:54:54 10° WNW 21:58:02 81° SSW 21:59:28 29° ESE
STARLINK-1188 2.7 21:55:48 10° WNW 21:58:56 80° SSW 22:00:22 29° ESE
STARLINK-1187 2.7 21:56:54 10° WNW 22:00:00 73° SSW 22:01:14 33° SE
Cosmos 1340 Rocket 3.7 21:56:35 10° N 22:00:26 39° ENE 22:02:31 23° SE
ATLAS CENTAUR R/B 2.5 21:59:36 25° SE 22:00:28 26° ESE 22:03:58 10° ENE
STARLINK-1197 3.9 21:56:36 10° WNW 22:00:45 68° NNE 22:04:53 10° E
STARLINK-1191 2.7 21:58:15 10° WNW 22:01:22 78° SSW 22:02:40 31° ESE
Aureole 3 4.4 21:59:35 10° NNE 22:02:16 23° ENE 22:03:24 19° ESE
STARLINK-1221 2.7 21:59:12 10° WNW 22:02:18 77° SSW 22:03:34 32° ESE
STARLINK-1236 4.2 21:58:42 10° W 22:02:49 60° N 22:06:55 10° ENE
STARLINK-1222 2.7 22:00:04 10° WNW 22:03:09 76° SSW 22:04:23 33° ESE
Thor Agena Rocket 3.7 21:58:44 10° NNE 22:03:59 58° ESE 22:07:12 23° S
STARLINK-1214 2.7 22:00:57 10° WNW 22:04:03 75° SSW 22:05:16 34° SE
NOSS 2-2 (C) 4.3 22:00:51 10° WSW 22:04:23 48° NW 22:08:33 10° NE
Cosmos 1025 Rocket 3.2 22:02:57 27° SSE 22:05:08 58° E 22:09:23 10° NNE
EXPRESS MD2 4.0 22:01:37 10° WSW 22:05:35 81° S 22:13:58 10° E
Okean 2 4.4 22:02:00 12° SSW 22:05:42 44° WNW 22:09:44 10° N
STARLINK-1198 3.9 22:01:35 10° WNW 22:05:44 70° NNE 22:09:52 10° E
Cosmos 2026 Rocket 4.2 22:00:23 13° SSW 22:06:04 73° WNW 22:12:28 10° N
Cosmos 1553 Rocket 4.0 22:01:11 10° N 22:07:31 86° W 22:11:43 22° S
BREEZE M DEB (TANK) 1.6 22:04:42 10° WSW 22:07:53 66° S 22:08:32 39° ESE
ATLAS 2AS CENTAUR R/B 3.2 22:00:30 11° SSW 22:08:05 57° ESE 22:15:48 10° NE
Cosmos 1656 Rocket 3.9 22:04:50 22° S 22:08:20 52° ESE 22:13:44 10° NE
Cosmos 1953 2.6 22:04:54 10° N 22:08:51 55° ENE 22:10:41 28° SE
BREEZE-M DEB (TANK) 4.3 21:55:43 10° WNW 22:09:15 58° SSW 22:11:56 24° SE
STARLINK-1228 3.2 22:06:25 10° WNW 22:09:52 59° SSW 22:11:08 34° SE
Cosmos 1470 2.9 22:06:05 10° NNW 22:09:57 66° W 22:11:51 28° S
STARLINK-1199 3.8 22:06:35 10° WNW 22:10:45 72° NNE 22:14:53 10° E
STARLINK-1235 3.0 22:09:08 10° WNW 22:12:20 57° SSW 22:13:12 40° SSE
STARLINK-1269 4.2 22:08:42 10° W 22:12:49 59° N 22:16:55 10° ENE
APEX 4.2 22:06:47 12° SSW 22:12:50 77° ESE 22:18:04 10° NE
Cosmos 2292 Rocket 4.1 22:13:23 26° ESE 22:14:19 29° E 22:17:10 10° NNE
Cosmos 968 Rocket 3.7 22:09:31 10° NNW 22:14:37 61° WSW 22:17:31 25° S
STARLINK-1210 3.8 22:11:34 10° WNW 22:15:43 74° NNE 22:19:52 10° E
Cosmos 1455 Rocket 4.1 22:12:42 10° NNW 22:16:44 38° W 22:19:25 18° SSW
STARLINK-1200 4.2 22:13:40 10° W 22:17:47 59° N 22:21:53 10° E
Cosmos 1655 Rocket 4.0 22:15:01 23° S 22:19:04 69° E 22:25:19 10° NNE
SL-4 R/B 1.8 22:20:18 30° ENE 22:20:18 30° ENE 22:22:14 10° N
STARLINK-1219 3.7 22:16:32 10° WNW 22:20:42 77° NNE 22:24:51 10° ESE
ATLAS 5 CENTAUR R/B 1.9 22:21:46 33° S 22:22:34 39° SE 22:24:47 10° ENE
STARLINK-1192 4.2 22:18:41 10° W 22:22:48 59° N 22:26:54 10° E
Cosmos 1758 3.8 22:19:27 10° NNW 22:23:25 55° W 22:25:25 27° SSW
STARLINK-1211 3.7 22:21:32 10° WNW 22:25:42 79° NNE 22:29:41 11° ESE
Cosmos 2228 4.0 22:22:34 10° N 22:26:31 36° ENE 22:28:36 22° SE
Terra 3.5 22:23:15 12° SW 22:26:40 24° W 22:30:32 10° NW
SL-4 R/B 2.4 22:22:03 10° SW 22:26:46 56° SSE 22:31:31 10° ENE
STARLINK-1244 4.2 22:23:40 10° W 22:27:47 59° N 22:31:53 10° E
STARLINK-1234 3.4 22:26:57 10° WNW 22:30:04 42° SSW 22:30:16 41° SSW
STARLINK-1245 3.6 22:26:30 10° WNW 22:30:41 82° NNE 22:34:26 12° ESE
STARLINK-1138 4.2 22:28:40 10° WNW 22:32:47 59° N 22:36:53 10° E
In-Cosmos 22 4.2 22:30:05 27° SSE 22:32:52 60° E 22:38:05 10° NNE
Cosmos 1503 Rocket 4.3 22:29:32 10° NNW 22:34:46 58° WSW 22:37:35 27° S
STARLINK-1233 3.6 22:31:28 10° WNW 22:35:38 85° NNE 22:39:12 14° ESE
STARLINK-1209 3.7 22:33:09 10° WNW 22:36:13 36° SSW 22:36:13 36° SSW
Cosmos 2266 Rocket 4.0 22:33:43 25° S 22:37:20 70° E 22:43:21 10° NNE
STARLINK-1143 4.2 22:33:38 10° WNW 22:37:45 59° N 22:41:52 10° E
STARLINK-1204 3.5 22:36:27 10° WNW 22:40:37 88° NNE 22:43:59 15° ESE
SJ 16-02 3.8 22:39:38 10° N 22:42:33 17° NE 22:45:25 10° E
STARLINK-1241 4.2 22:38:40 10° WNW 22:42:47 60° N 22:46:54 10° E
Cosmos 2263 4.4 22:39:18 11° SW 22:44:36 68° WNW 22:50:14 10° NNE
STARLINK-1238 3.5 22:41:28 10° WNW 22:45:37 88° SSW 22:48:47 17° ESE
STARLINK-1239 4.2 22:43:39 10° WNW 22:47:46 60° N 22:51:53 10° E
Cosmos 1536 Rocket 3.9 22:45:44 25° SSW 22:48:07 61° WNW 22:52:28 10° N
Cosmos 1674 3.0 22:48:20 36° SE 22:49:26 50° E 22:53:07 10° NNE
STARLINK-1201 3.5 22:46:26 10° WNW 22:50:36 84° SSW 22:53:33 19° ESE
Cosmos 1271 Rocket 3.9 22:49:29 19° SW 22:51:53 38° WNW 22:55:36 10° N
Cosmos 1242 Rocket 4.4 22:49:25 13° WSW 22:52:05 26° WNW 22:55:14 10° N
STARLINK-1240 4.1 22:48:38 10° WNW 22:52:45 61° N 22:56:52 10° E
STARLINK-60 2.8 22:52:20 11° WSW 22:55:23 90° SE 22:58:35 10° ENE
Cosmos 883 Rocket 4.4 22:49:15 10° N 22:55:25 83° W 22:58:57 27° S
STARLINK-1206 3.5 22:51:26 10° WNW 22:55:35 81° SSW 22:58:21 20° ESE
COSMOS 2455 2.8 22:52:50 22° SSW 22:56:47 72° ESE 23:02:48 10° NE
Cosmos 2219 4.1 22:51:53 10° NNW 22:57:19 44° NE 23:02:17 12° ESE
STARLINK-1216 4.1 22:53:36 10° WNW 22:57:44 62° N 23:01:51 10° E
STARLINK-1203 4.1 22:53:41 10° WNW 22:57:52 62° N 23:02:03 10° E
USA 215 3.2 22:52:56 13° SE 22:58:56 78° SW 23:05:32 10° WNW
STARLINK-1205 3.5 22:56:24 10° WNW 23:00:33 77° SSW 23:03:07 22° ESE
Cosmos 2297 Rocket 3.3 22:56:13 10° NNW 23:01:33 40° NE 23:06:51 10° ESE
Cosmos 1707 3.9 22:59:44 20° SW 23:01:55 36° WNW 23:05:33 10° N
STARLINK-1237 4.1 22:58:36 10° WNW 23:02:44 63° N 23:06:51 10° E
Helios 1A 3.1 23:01:35 33° SSE 23:03:25 71° ENE 23:07:36 10° N
Lacrosse 4 Rocket 4.0 23:01:48 10° NNW 23:05:03 20° NE 23:08:14 10° E
STARLINK-1218 3.5 23:01:24 10° WNW 23:05:32 73° SSW 23:07:55 24° SE
Cosmos 1726 3.1 23:02:39 10° NNW 23:06:06 37° W 23:07:20 28° SW
STARLINK-1202 4.0 23:03:35 10° WNW 23:07:43 64° N 23:11:51 10° E
Cosmos 1174 3.4 23:06:36 39° SW 23:07:45 87° WNW 23:11:40 10° NE
Timation 2 Rocket 3.9 23:02:41 10° NNW 23:09:06 88° SW 23:12:55 25° SSE
ALOS 2 2.8 23:07:47 33° SSW 23:09:35 59° W 23:13:56 10° NNW
Cosmos 2058 Rocket 3.5 23:05:30 10° N 23:09:51 53° ENE 23:11:58 28° SE
COSMOS 2487 3.4 23:06:47 10° NW 23:09:56 32° WSW 23:10:32 30° SW
STARLINK-1254 3.5 23:06:22 10° WNW 23:10:30 69° SSW 23:12:41 26° SE
CENTAUR R/B 4.0 23:06:29 10° NW 23:13:42 36° WSW 23:18:17 22° SSW
STARLINK-1372 4.5 23:15:07 28° SE 23:15:07 28° SE 23:17:51 10° E
STARLINK-1231 3.5 23:11:21 10° WNW 23:15:28 66° SSW 23:17:27 29° SE
Meteor 2-5 Rocket 3.8 23:14:12 29° S 23:17:02 65° E 23:22:37 10° NNE
ATLAS 3B R/B 2.9 23:10:44 10° NW 23:17:19 54° WSW 23:21:09 26° S
STARLINK-1246 3.9 23:13:35 10° WNW 23:17:43 67° NNE 23:21:52 10° E
STARLINK-1378 4.4 23:18:28 30° SE 23:18:28 30° SE 23:21:22 10° E
Cosmos 1606 Rocket 3.6 23:15:36 10° NNW 23:19:55 67° W 23:21:36 35° SSW
SL-14 R/B 4.0 23:19:11 31° SE 23:20:20 40° E 23:23:58 10° NNE
SeaSat 1 3.0 23:15:31 10° NNE 23:20:22 57° NW 23:24:20 15° SW
FALCON 9 DEB 3.1 23:20:07 52° S 23:20:27 55° SSE 23:23:50 10° ENE
STARLINK-1232 3.6 23:16:21 10° WNW 23:20:27 62° SSW 23:22:15 31° SE
STARLINK-1379 4.3 23:21:51 32° SE 23:21:51 32° SE 23:24:55 10° E
STARLINK-1224 3.9 23:18:33 10° WNW 23:22:42 69° NNE 23:26:50 10° E
Cosmos 1943 Rocket 4.2 23:18:14 10° W 23:22:51 26° NW 23:27:31 10° NNE
STARLINK-1329 4.2 23:23:14 33° SE 23:23:14 33° SE 23:26:23 10° E
Cosmos 2098 Rocket 4.4 23:20:08 25° SSW 23:24:47 83° W 23:32:19 10° N
STARLINK-29 2.8 23:24:02 34° WSW 23:25:16 85° SSE 23:28:29 10° ENE
STARLINK-1208 3.6 23:21:18 10° WNW 23:25:23 58° SSW 23:27:00 33° SE
STARLINK-1362 4.1 23:26:40 35° SE 23:26:40 35° SE 23:29:59 10° ENE
SL-16 R/B 4.4 23:22:20 10° ESE 23:27:06 24° NE 23:31:53 10° N
STARLINK-1225 3.8 23:23:33 10° WNW 23:27:42 71° NNE 23:31:51 10° E
ATLAS CENTAUR R/B 1.5 23:25:39 10° NW 23:27:44 57° NNE 23:31:27 10° ESE
STARLINK-1373 4.0 23:30:05 37° SE 23:30:05 37° SE 23:33:36 10° ENE
STARLINK-1271 3.7 23:26:19 10° WNW 23:30:23 55° SSW 23:31:49 35° SSE
NOSS 3-4 (A) 3.8 23:24:29 10° WSW 23:30:28 66° NW 23:36:58 10° NE
NOSS 3-4 (C) 3.8 23:24:35 10° SW 23:30:34 66° NW 23:37:04 10° NE
STARLINK-1365 3.9 23:31:12 38° SSE 23:31:16 38° SE 23:34:52 10° ENE
RESURS DK-1 2.3 23:29:48 37° SSW 23:31:21 77° ESE 23:35:30 10° NNE
STARLINK-1230 3.8 23:28:32 10° WNW 23:32:41 73° NNE 23:36:50 10° E
Cosmos 2315 Rocket 4.3 23:27:29 10° NNW 23:33:32 55° W 23:36:59 26° SSW
STARLINK-1390 3.9 23:33:35 39° SSE 23:33:39 39° SE 23:37:13 10° ENE
Cosmos 2084 3.5 23:33:37 35° SSW 23:35:20 63° SE 23:39:46 10° NE
STARLINK-1154 3.7 23:31:19 10° WNW 23:35:21 51° SSW 23:36:35 37° SSE
BREEZE-M R/B 3.9 23:31:45 17° SW 23:36:24 40° SSE 23:40:03 10° E
Cosmos 1626 2.2 23:36:00 42° SSE 23:37:06 65° E 23:40:47 10° NNE
STARLINK-1243 3.7 23:33:31 10° WNW 23:37:41 76° NNE 23:41:50 10° ESE
Cosmos 2227 Rocket 2.7 23:32:59 10° NNW 23:38:38 60° NE 23:43:30 14° SE
ATLAS CENTAUR R/B 2.1 23:35:42 14° WSW 23:39:12 50° NW 23:43:10 10° NNE
Cosmos 2369 Rocket 4.1 23:34:33 10° W 23:39:17 26° NW 23:44:01 10° NNE
Okean 1-7 Rocket 3.6 23:37:39 35° S 23:39:32 78° E 23:44:05 10° NNE
STARLINK-1197 3.8 23:36:16 10° WNW 23:40:17 48° SSW 23:41:21 38° SSE
Cosmos 1908 4.3 23:37:55 10° NNW 23:41:22 33° W 23:42:29 27° SW
CZ-4 R/B 4.2 23:37:04 10° NNE 23:41:46 53° E 23:43:50 30° SSE
STARLINK-1236 3.7 23:38:29 10° WNW 23:42:39 78° NNE 23:46:49 10° ESE
Nadezhda 2 Rocket 4.4 23:39:44 27° SSW 23:43:14 85° W 23:49:26 10° N
STARLINK-1198 3.9 23:41:16 10° WNW 23:45:15 45° SSW 23:46:07 39° S
Landsat 4 3.8 23:45:58 10° N 23:49:40 69° WNW 23:51:00 37° SW
STARLINK-1199 4.0 23:46:17 10° WNW 23:50:13 42° SW 23:50:56 38° S
STARLINK-1269 3.6 23:48:28 10° WNW 23:52:38 84° NNE 23:56:48 10° ESE
Meteor 2-21 Rocket 4.5 23:50:06 27° S 23:53:38 83° E 23:59:52 10° NNE
STARLINK-1210 4.0 23:51:16 10° WNW 23:55:10 40° SW 23:55:41 38° SSW
